STARLINK-30368, 57752

Orbit data source: Space-Track

STARLINK-30368, 57752 is a payload satellite owned by SpaceX/Seattle (US) in LEO that was launched on Fri, 01 Sep 2023 UTC via an FALCON 9 launch vehicle from the Air Force Eastern Test Range (AFETR). Payload-class satellites include a variety of spacecraft equipped with specific instruments for various scientific and technological missions. These include communications satellites like Starlink; space stations such as the ISS; scientific satellites like the Hubble; Earth observation satellites from companies like Planet Labs, Umbra, and HawkEye 360; GPS; miniature CubeSats for education and research; and military/defense satellites.

Loading next visibility...
Identifier
57752, 2023-131W
Orbit
LEO
Country
Flag of USUS
Related business
Manufacturer
SpaceX/Seattle
Mission
Operational Commercial Communications
Bus & Motor
STARLINK V2M, Unknown motor
Mass
730 kg wet, ~700 kg dry
Launch date (UTC)
2023-09-01 (3 years ago)
Launch vehicle
FALCON 9
Launch site
Air Force Eastern Test Range (AFETR)
Object type
Payload
Rocket body
Debris
Shape & HBR
Box + 2 Pan, 17.7 m
Radar Cross Section
33.884 m², Large (>1 m²)

Expand to show TLE details & history
Last TLE update: 2 days ago

TLE from 2 days ago
0 STARLINK-30368
1 57752U 23131W   26171.47816182  .00000588  00000-0  30879-4 0  9992
2 57752  43.0011 312.1800 0001296 275.4124  84.6579 15.27576594155635
Epoch: 2026-06-20T11:28Z
TLE epoch observation values (Epoch: 2026-06-20T11:28:33.181Z)
Latitude
-0.00006°
Longitude
-128.65053°
Altitude
482.752 km
Speed
7.626 km/s
True Right ascension
20h 48m 43s
True Declination
0° 00' 00"
Sunlit
Object was in full shadow at epoch
Visualization orbit readout
Latitude
Unknown
Longitude
Unknown
Altitude
Unknown
Speed
Unknown
Apparent Right ascension
Unknown
Apparent Declination
Unknown
Sunlit
N/A
Visualization observer readout
Local Sidereal Time
21:24:25
Azimuth
Unknown
Elevation
Unknown
Doppler factor
Unknown
Orbital elements
Apogee altitude
485.894 km
Perigee altitude
484.115 km
Semi-major axis
6,863.141 km
Eccentricity
0.00013
Inclination
43.0011°
RAAN
312.18°
Arg. of periapsis
275.4124°
True anomaly
84.67269°
Mean anomaly
84.6579°
Eccentric anomaly
84.66529°
Mean motion
3.81732 °/min
Orbital period
94.31 mins
BSTAR
0.000030879
Loading maneuver chart data...
Computing Atmospheric mass density...
Loading historical data...
Loading historical data...
Loading historical data...
Loading historical data...
Loading historical data...
Loading historical data...
Loading historical data...

Documentation

Showing up to 5 results
|